Flag for Slovakia Weather past 2 weeks in Bratislava, Slovakia

46 °F


Feels Like: 41 °F
Forecast: 44 / 51 °F
Wind: 12 mph from Southwest

Location: Bratislava Ivanka

Current Time: Nov 29, 2015 at 12:02:14 PM

Latest Report: Nov 29, 2015 at 11:30 AM

Visibility: 10 mi

Pressure: 30.07 "Hg

Humidity: 46%

Dew point: 27 °F

Location of BratislavaLocation

Historic Weather in Bratislava — Graph


Bratislava temperature yesterday

Maximum temperature yesterday: 41 °F (at 11:30 AM)
Minimum temperature yesterday: 30 °F (at 3:00 AM)
Average temperature yesterday: 38 °F

Past Weeks' High & Low Weather Summary

High66 °F (Nov 18, 10:00 AM)100% (Nov 15, 1:00 PM)30.33 "Hg (Nov 15, 1:00 PM)
Low23 °F (Nov 25, 4:00 AM)38% (Nov 14, 1:00 PM)29.36 "Hg (Nov 20, 11:00 PM)
Average44 °F73%29.93 "Hg
* Reported Nov 14 11:00 AM — Nov 29 11:00 AM, Bratislava, Weather by CustomWeather, © 2015

Note: Actual official high and low records may vary slightly from our data, if they occured in-between our weather recording intervals... More about our weather records


Bratislava weather history for previous 24 hours

Time TempWeatherWind HumidityBarometerVisibility
11:00 AM
Sun, Nov 29
43 °FSunny.12 mph57%30.09 "Hg10 mi
10:30 AM45 °FSunny.12 mph53%30.09 "Hg10 mi
10:00 AM43 °FSunny.8 mph57%30.12 "Hg10 mi
9:30 AM43 °FSunny.13 mph57%30.12 "Hg10 mi
9:00 AM41 °FSunny.17 mph61%30.12 "Hg10 mi
7:30 AM37 °FSunny.8 mph70%30.12 "Hg10 mi
7:00 AM37 °FClear.8 mph70%30.12 "Hg10 mi
6:00 AM37 °FPassing clouds.5 mph70%30.12 "HgN/A
5:30 AM39 °FClear.9 mph65%30.12 "Hg10 mi
5:00 AM39 °FClear.13 mph70%30.12 "Hg10 mi
4:30 AM39 °FClear.13 mph75%30.09 "Hg10 mi
4:00 AM39 °FClear.10 mph75%30.09 "Hg10 mi
3:30 AM39 °FClear.14 mph70%30.09 "Hg10 mi
3:00 AM39 °FClear.17 mph70%30.09 "Hg10 mi
2:30 AM39 °FClear.17 mph65%30.09 "Hg10 mi
2:00 AM39 °FClear.18 mph70%30.09 "Hg10 mi
1:30 AM39 °FClear.15 mph70%30.09 "Hg10 mi
12:30 AM41 °FPartly cloudy.16 mph66%30.07 "HgN/A
12:00 AM41 °FLight rain. Passing clouds.16 mph66%30.07 "HgN/A
11:00 PM
Sat, Nov 28
41 °FPartly cloudy.20 mph70%30.04 "HgN/A
10:30 PM41 °FPassing clouds.20 mph70%30.04 "HgN/A
10:00 PM41 °FPartly cloudy.16 mph70%30.01 "HgN/A
9:30 PM41 °FPassing clouds.16 mph70%30.01 "HgN/A
9:00 PM41 °FPassing clouds.14 mph70%29.98 "HgN/A
8:30 PM39 °FPassing clouds.14 mph75%29.98 "HgN/A
8:00 PM39 °FLight rain. Passing clouds.16 mph81%29.95 "HgN/A
7:30 PM39 °FPassing clouds.16 mph75%29.95 "HgN/A
7:00 PM39 °FPassing clouds.13 mph75%29.95 "HgN/A
6:30 PM39 °FClear.16 mph70%29.92 "Hg10 mi
6:00 PM39 °FClear.13 mph65%29.92 "Hg10 mi
5:30 PM39 °FPassing clouds.14 mph65%29.92 "HgN/A
5:00 PM39 °FPassing clouds.14 mph65%29.89 "HgN/A
4:30 PM39 °FPassing clouds.9 mph65%29.89 "HgN/A
4:00 PM39 °FScattered clouds.8 mph70%29.89 "HgN/A
3:30 PM41 °FScattered clouds.8 mph66%29.89 "HgN/A
3:00 PM41 °FPartly sunny.17 mph70%29.86 "HgN/A
2:30 PM41 °FPartly sunny.15 mph66%29.83 "HgN/A
2:00 PM41 °FPartly sunny.10 mph66%29.83 "HgN/A
1:30 PM41 °FBroken clouds.15 mph66%29.83 "HgN/A
1:00 PM41 °FBroken clouds.13 mph66%29.83 "HgN/A
12:30 PM41 °FPartly sunny.9 mph66%29.83 "HgN/A
12:00 PM41 °FScattered clouds.9 mph66%29.83 "HgN/A
Weather by CustomWeather, © 2015

See weather overviewHow to use our weather pages